STARLINK-31662, 59584

Orbit data source: Space-Track

STARLINK-31662, 59584 is a payload satellite owned by SpaceX/Seattle (US) in LEO that was launched on Tue, 23 Apr 2024 UTC via an FALCON 9 launch vehicle from the Air Force Eastern Test Range (AFETR). Payload-class satellites include a variety of spacecraft equipped with specific instruments for various scientific and technological missions. These include communications satellites like Starlink; space stations such as the ISS; scientific satellites like the Hubble; Earth observation satellites from companies like Planet Labs, Umbra, and HawkEye 360; GPS; miniature CubeSats for education and research; and military/defense satellites.

Loading next visibility...
Identifier
59584, 2024-076W
Orbit
LEO
Country
Flag of USUS
Related business
Manufacturer
SpaceX/Seattle
Mission
Operational Commercial Communications
Bus & Motor
STARLINK V2M, Unknown motor
Mass
730 kg wet, ~700 kg dry
Launch date (UTC)
2024-04-23 (1 year ago)
Launch vehicle
FALCON 9
Launch site
Air Force Eastern Test Range (AFETR)
Object type
Payload
Rocket body
Debris
Shape & HBR
Box + 2 Pan, 17.7 m
Radar Cross Section
33.884 m², Large (>1 m²)

Expand to show TLE details & history
Last TLE update: 13 hours ago

TLE from 13 hours ago
0 STARLINK-31662
1 59584U 24076W   25288.93909068  .00014336  00000-0  52910-3 0  9996
2 59584  43.0018 106.5825 0001400 274.0203  86.0488 15.27603282 84360
Epoch: 2025-10-15T22:32Z
TLE epoch observation values (Epoch: 2025-10-15T22:32:17.434Z)
Latitude
-0.00007°
Longitude
103.80381°
Altitude
482.689 km
Speed
7.626 km/s
True Right ascension
07h 06m 19s
True Declination
0° 00' 00"
Sunlit
Object was in daylight at epoch
Visualization orbit readout
Latitude
Unknown
Longitude
Unknown
Altitude
Unknown
Speed
Unknown
Apparent Right ascension
Unknown
Apparent Declination
Unknown
Sunlit
N/A
Visualization observer readout
Local Sidereal Time
06:04:26
Azimuth
Unknown
Elevation
Unknown
Doppler factor
Unknown
Orbital elements
Apogee altitude
485.885 km
Perigee altitude
483.963 km
Semi-major axis
6,863.061 km
Eccentricity
0.00014
Inclination
43.0018°
RAAN
106.5825°
Arg. of periapsis
274.0203°
True anomaly
86.0648°
Mean anomaly
86.0488°
Eccentric anomaly
86.0568°
Mean motion
3.81739 °/min
Orbital period
94.31 mins
BSTAR
0.0005291
Loading maneuver chart data...
Computing Atmospheric mass density...
Loading historical data...
Loading historical data...
Loading historical data...
Loading historical data...
Loading historical data...
Loading historical data...
Loading historical data...

Documentation

Showing up to 5 results
|